Grand Island, NE

10:59 PM CST on November 19, 2017 (GMT -0600)
Central Nebraska Regional

Weather History for KGRI - November, 2013

Change the Weather History Date:

Tuesday, November 5, 2013

  Actual Average Record
Temperature  
Mean Temperature 35 °F 44 °F  
Max Temperature 42 °F 55 °F 82 °F (1945)
Min Temperature 28 °F 32 °F 12 °F (1982)
Degree Days  
Heating Degree Days 30 21  
Month to date heating degree days 102 102  
Since 1 July heating degree days 529 625  
Cooling Degree Days 0 0  
Month to date cooling degree days 0 0  
Year to date cooling degree days 1265 1034  
Moisture  
Dew Point 33 °F    
Average Humidity 81    
Maximum Humidity 100    
Minimum Humidity 62    
Precipitation  
Precipitation 0.90 in 0.05 in 1.30 in (2000)
Month to date precipitation 0.90 0.23  
Year to date precipitation 26.74 25.09  
Snow  
Snow T in 0.10 in 1.00 in (1895)
Month to date snowfall T 0.4  
Since 1 July snowfall T 1.5  
Since 1 September snowfall T 1.5  
Snow Depth 0.00 in    
Sea Level Pressure  
Sea Level Pressure 30.04 in    
Wind  
Wind Speed 14 mph (NNE)    
Max Wind Speed 24 mph    
Max Gust Speed 30 mph    
Visibility 8 miles    
Events Rain , Snow    
T = Trace of Precipitation, MM = Missing Value Source: NWS Daily Summary

Daily Weather History Graph

Daily Weather History Graph

Search for Another Location

Airport or City:

Trip Planner

Search our weather history database for the weather conditions in past years. The results will help you decide how hot, cold, wet, or windy it might be!

Date:

Astronomy

Nov. 05, 2013 Rise Set
Actual Time 7:09 AM CST 5:24 PM CST
Civil Twilight 6:40 AM CST 5:52 PM CST
Nautical Twilight 6:07 AM CST 6:25 PM CST
Astronomical Twilight 5:35 AM CST 6:57 PM CST
Moon 9:26 AM CST (11/5) 7:26 PM CST (11/5)
Length of Visible Light 11h 12m
Length of Day
10h 14m
Waxing Crescent, 7% of the Moon is Illuminated
Nov 5
Waxing Crescent
Nov 9
First Quarter
Nov 17
Full
Nov 25
Last Quarter
Dec 2
New

Hourly Weather History & Observations

Time (CST) Temp. Windchill Dew Point Humidity Pressure Visibility Wind Dir Wind Speed Gust Speed Precip Events Conditions
12:53 AM 30.0 °F 26.5 °F 27.0 °F 88% 30.14 in 10.0 mi ENE 3.5 mph - N/A   Clear
1:53 AM 30.0 °F 26.5 °F 27.0 °F 88% 30.15 in 10.0 mi NE 3.5 mph - N/A   Clear
2:53 AM 30.0 °F 25.2 °F 27.0 °F 88% 30.13 in 10.0 mi NE 4.6 mph - N/A   Mostly Cloudy
3:53 AM 35.1 °F 31.0 °F 30.9 °F 85% 30.10 in 10.0 mi NE 4.6 mph - N/A   Overcast
4:53 AM 37.9 °F 33.5 °F 32.0 °F 79% 30.08 in 10.0 mi NE 5.8 mph - N/A   Overcast
5:53 AM 41.0 °F 35.2 °F 32.0 °F 70% 30.08 in 10.0 mi East 9.2 mph - N/A   Overcast
6:53 AM 42.1 °F 36.1 °F 30.9 °F 65% 30.05 in 10.0 mi ENE 10.4 mph - N/A   Overcast
7:12 AM 41.0 °F 35.8 °F 33.8 °F 76% 30.03 in 9.0 mi ENE 8.1 mph - 0.01 in Rain Light Rain
7:53 AM 39.0 °F 35.7 °F 36.0 °F 89% 30.11 in 4.0 mi NNE 4.6 mph - 0.16 in Rain Rain
8:29 AM 37.4 °F 31.4 °F 35.6 °F 93% 30.06 in 5.0 mi NNE 8.1 mph - 0.18 in Rain Rain
8:53 AM 37.0 °F 29.3 °F 36.0 °F 96% 30.08 in 5.0 mi NE 11.5 mph - 0.22 in Rain Light Rain
9:40 AM 37.4 °F 27.8 °F 37.4 °F 100% 29.99 in 5.0 mi NE 17.3 mph 24.2 mph 0.13 in Rain Rain
9:53 AM 37.9 °F 28.5 °F 37.0 °F 97% 30.03 in 6.0 mi NE 17.3 mph 24.2 mph 0.14 in Rain Light Rain
10:53 AM 37.9 °F 28.9 °F 37.0 °F 97% 29.99 in 7.0 mi ENE 16.1 mph 25.3 mph 0.01 in Rain Light Rain
11:21 AM 37.4 °F 28.5 °F 37.4 °F 100% 29.94 in 2.5 mi NE 15.0 mph 21.9 mph 0.03 in Rain Rain
11:33 AM 37.4 °F 28.5 °F 37.4 °F 100% 29.93 in 4.0 mi NE 15.0 mph 23.0 mph 0.05 in Rain Light Rain
11:53 AM 37.9 °F 29.2 °F 37.0 °F 97% 29.96 in 3.0 mi NE 15.0 mph 24.2 mph 0.09 in Rain Rain
12:53 PM 37.0 °F 27.7 °F 36.0 °F 96% 29.97 in 3.0 mi NNE 16.1 mph 25.3 mph 0.07 in Snow Light Snow
1:02 PM 37.4 °F 27.2 °F 35.6 °F 93% 29.93 in 5.0 mi North 19.6 mph - 0.00 in Snow Light Snow
1:16 PM 37.4 °F 27.5 °F 35.6 °F 93% 29.92 in 2.5 mi North 18.4 mph - 0.03 in Rain Rain
1:44 PM 35.6 °F 24.5 °F 35.6 °F 100% 29.90 in 3.0 mi NNE 20.7 mph 27.6 mph 0.14 in Rain Heavy Rain
1:53 PM 36.0 °F 25.6 °F 35.1 °F 97% 29.94 in 4.0 mi NNE 18.4 mph 27.6 mph 0.18 in Rain Rain
2:19 PM 35.6 °F 25.2 °F 33.8 °F 93% 29.91 in 8.0 mi North 18.4 mph 24.2 mph 0.02 in Rain Light Freezing Rain
2:42 PM 35.6 °F 25.2 °F 33.8 °F 93% 29.91 in 10.0 mi NNE 18.4 mph 28.8 mph 0.02 in Rain Light Rain
2:53 PM 36.0 °F 26.3 °F 34.0 °F 93% 29.96 in 10.0 mi NNE 16.1 mph 26.5 mph 0.02 in   Overcast
3:30 PM 35.6 °F 25.9 °F 35.6 °F 100% 29.92 in 10.0 mi NNE 16.1 mph 25.3 mph 0.01 in Rain Light Rain
3:53 PM 36.0 °F 26.0 °F 34.0 °F 93% 29.98 in 9.0 mi NNE 17.3 mph 28.8 mph 0.01 in   Overcast
4:53 PM 35.1 °F 23.8 °F 34.0 °F 96% 30.02 in 2.0 mi North 20.7 mph 28.8 mph 0.00 in Snow Light Snow
5:34 PM 35.6 °F 24.2 °F 33.8 °F 93% 29.99 in 2.0 mi North 21.9 mph - 0.00 in Rain Light Freezing Rain
5:53 PM 34.0 °F 22.1 °F 32.0 °F 92% 30.04 in 10.0 mi North 21.9 mph 28.8 mph 0.00 in Rain Light Freezing Rain
6:00 PM 33.8 °F 21.9 °F 32.0 °F 93% 30.01 in 9.0 mi North 21.9 mph 28.8 mph 0.00 in Snow Light Snow
6:53 PM 34.0 °F 22.7 °F 32.0 °F 92% 30.08 in 10.0 mi NNW 19.6 mph - 0.00 in   Overcast
7:53 PM 35.1 °F 25.2 °F 32.0 °F 89% 30.09 in 10.0 mi North 16.1 mph - N/A   Overcast
8:53 PM 34.0 °F 21.8 °F 30.9 °F 89% 30.12 in 10.0 mi NNW 23.0 mph 29.9 mph N/A   Overcast
9:53 PM 34.0 °F 23.4 °F 30.9 °F 89% 30.16 in 10.0 mi NNW 17.3 mph 27.6 mph N/A   Overcast
10:45 PM 33.8 °F 23.2 °F 30.2 °F 87% 30.12 in 10.0 mi NNW 17.3 mph 24.2 mph N/A   Overcast
10:53 PM 33.1 °F 22.2 °F 30.9 °F 92% 30.17 in 10.0 mi NNW 17.3 mph 26.5 mph N/A   Overcast
11:07 PM 33.8 °F 23.9 °F 30.2 °F 87% 30.13 in 10.0 mi NNW 15.0 mph 24.2 mph N/A   Overcast
11:30 PM 33.8 °F 22.5 °F 30.2 °F 87% 30.13 in 10.0 mi North 19.6 mph - N/A   Overcast
11:53 PM 33.1 °F 22.2 °F 30.0 °F 89% 30.17 in 10.0 mi NNW 17.3 mph - N/A   Overcast